sat.trackr.live / text

‹ back to catalog

STARLINK-30539

NORAD 58004 · 2023-153P

PAYLOAD ACTIVE UNKNOWN

§ Identity

Operator
Country
US
Launch date
2023-10-05
Launch site
AFETR
Launch vehicle
Mass (kg)
RCS (m²)

Purposes: comms

External: N2YO · Heavens-Above · Gunter

§ Orbital elements

Epoch: 2026-05-24T23:00:09.463104Z

Period
94.27 min
Inclination
43.0055°
Eccentricity
0.0001302
Mean motion
15.27576520 rev/d
Perigee alt
482.2 km
Apogee alt
484.0 km
Semi-major
6,861.2 km
B*
4.5953e-5
RAAN
356.0747°
Arg perigee
253.8165°
Mean anomaly
106.2543°
Rev number
14,655

§ Raw data

STARLINK-305391 58004U 23153P   26144.95844286  .00001002  00000+0  45953-4 0  99962 58004  43.0055 356.0747 0001302 253.8165 106.2543 15.27576520146556

JSON: /api/v1/satellites/58004 · /tle

For live sub-satellite position, see the globe view (requires WebGL).

§ Visibility from observer

Set your observer location to see the next 7 days of passes ≥ 10°. The values pass through the URL so the page stays shareable.

No JS? Fill the form by hand. The geolocation button needs JavaScript.